Voltar ao catálogo

COSMOS 846

AtivoMilitarPO
NORAD 9061·PAYLOAD·🇷🇺 Russia

Lançado Jul 29, 1976 de Plesetsk Cosmodrome

Loading…

Próximas Passagens (próximas 24 horas)

TLE

AtualizadoSource: Space-Track

Época: Sep 14, 2026, 05:29 UTC

1 09061U 76078A   26257.22893215  .00000052  00000-0  38042-4 0  9996
2 09061  82.9363 354.4185 0039914 288.7275  97.9173 13.76658205787487

Acompanhe COSMOS 846 em tempo real com AllMySat

Download on the App Store